Location: Unnamed
(23.5608°S, 46.6833°W)
Time: 05:49:29
(UTC-03:00)

Tiros 4 - Pass Details

Date: 12 December 2023
Orbit: 683 x 792 km, 48.3° (Epoch: 24 February)

Event Time Altitude Azimuth Distance (km) Brightness Sun altitude
Exits shadow 00:15:34 10° 210° (SSW) 2,351 10.0 -43.2°
Maximum altitude 00:16:00 10° 206° (SSW) 2,346 10.0 -43.2°
Drops below altitude 10° 00:16:53 10° 196° (SSW) 2,372 10.1 -43.2°
Sets 00:22:05 0° 155° (SSE) 3,306 11.0 -43.1°
